Regional Weather Roundup
Issued by NWS

Home | Current Version | Previous Version | Graphics & Text | Print | Product List | Glossary On
Versions: 1 2 3 4 5 6 7 8 9 10 11 12 13 14 15 16 17 18 19 20 21 22 23 24 25 26 27 28 29 30 31 32 33 34 35 36 37 38 39 40 41 42 43 44 45 46 47 48 49 50
000
ASUS43 KMPX 242201
RWRMN
WEATHER ROUNDUP FOR MINNESOTA
NATIONAL WEATHER SERVICE TWIN CITIES/CHANHASSEN MN
400 PM CST WED DEC 24 2014


NOTE: "FAIR" INDICATES FEW OR NO CLOUDS BELOW 12,000 FEET WITH NO
SIGNIFICANT WEATHER AND/OR OBSTRUCTIONS TO VISIBILITY. N/A MEANS
CURRENT SKY AND/OR WEATHER CONDITIONS ARE NOT AVAILABLE.

MNZ060>063-068>070-242300-
   Twin Cities Metro

CITY           SKY/WX    TMP DP  RH WIND       PRES   REMARKS
TWIN CITIES    CLOUDY    35  30  82 W7        29.64S WCI  29
ST PAUL        CLOUDY    36  31  82 W9        29.65S
CRYSTAL        CLOUDY    36  31  82 NW7       29.63F
LAKEVILLE      CLOUDY    34  30  86 W6        29.63F WCI  29
EDEN PRAIRIE   CLOUDY    35  30  82 W8        29.63F WCI  29
SOUTH ST PAUL  CLOUDY    36  31  82 W6        29.64S
LAKE ELMO      CLOUDY    36  32  87 NW7       29.64S
$$
MNZ001>005-007-008-013>017-022>024-027-028-242300-
   Northwest Minnesota

CITY           SKY/WX    TMP DP  RH WIND       PRES   REMARKS
BEMIDJI        CLOUDY    31  28  87 SW6       29.55F WCI  25
HALLOCK        CLOUDY    28  27  93 S13       29.54F WCI  18
ROSEAU         CLOUDY    30  25  80 S12       29.55F WCI  21
WARROAD        CLOUDY    30  27  86 S5        29.56S WCI  25
THIEF RVR FALL CLOUDY    27  25  93 S12       29.57S WCI  16
CROOKSTON      CLOUDY    27  27 100 S14       29.58S FOG     WCI  15
FOSSTON        CLOUDY    27  25  93 S15       29.56F WCI  15
DETROIT LAKES  CLOUDY    28  28 100 S8        29.59F WCI  20
MOORHEAD       CLOUDY    27  27 100 S9        29.61F FOG     WCI  17
PARK RAPIDS    CLOUDY    32  27  81 SW9       29.56F WCI  24
MAHNOMEN       CLOUDY    27  26  96 SW10      29.58F WCI  17
$$
MNZ006-009>011-018-025>026-242300-
   North Central Minnesota

CITY           SKY/WX    TMP DP  RH WIND       PRES   REMARKS
BAUDETTE       CLOUDY    31  27  85 SW6       29.54F WCI  25
FLAG ISLAND    LGT RAIN  30  28  93 SW7       29.54F WCI  23
INTL FALLS     CLOUDY    32  30  92 SW3       29.55F
WASKISH        CLOUDY    30  30 100 CALM      29.56F
BIG FORK       CLOUDY    34  30  86 CALM      29.56F
LONGVILLE      CLOUDY    32  30  93 CALM      29.57F
GRAND RAPIDS   CLOUDY    32  30  93 W5        29.57F WCI  27
CRANE LAKE     LGT SNOW  30  30 100 CALM      29.58F
ORR            CLOUDY    32  30  93 CALM      29.54F
COOK           CLOUDY    32  30  93 CALM      29.56F
WALKER         CLOUDY    31  28  87 SW7       29.57F WCI  25
$$
MNZ012-019>021-037-242300-
   Northeast Minnesota

CITY           SKY/WX    TMP DP  RH WIND       PRES   REMARKS
DULUTH         CLOUDY    33  29  85 NW9       29.56F WCI  25
ELY            CLOUDY    30  28  93 W3        29.56S
HIBBING        CLOUDY    34  30  85 CALM      29.56F
EVELETH        MIX PCPN  32  32 100 CALM      29.57F
DULUTH HARBOR  CLOUDY    36  30  80 CALM      29.60F
TWO HARBORS    CLOUDY    37  30  75 CALM      29.56F
SILVER BAY       N/A     36  30  80 CALM      29.55F
GRAND MARAIS     N/A     36  28  73 VRB3      29.55F
G MARAIS ARPRT MOCLDY    28  25  86 NW3       29.52F
$$
MNZ029>031-032-039>041-046>048-054>057-064-242300-
   West Central Minnesota

CITY           SKY/WX    TMP DP  RH WIND       PRES   REMARKS
FERGUS FALLS   CLOUDY    25  25 100 SW8       29.64F WCI  16
WHEATON        CLOUDY    27  25  93 S7        29.64F WCI  19
MORRIS         CLOUDY    28  27  93 SW6       29.62F FOG     WCI  22
ALEXANDRIA     CLOUDY    29  26  89 W7        29.61F WCI  22
ELBOW LAKE     CLOUDY    26  25  97 SW8       29.60F WCI  18
WADENA         CLOUDY    28  27  93 W7        29.59F WCI  21
GLENWOOD       CLOUDY    28  27  93 W7        29.63F WCI  21
APPLETON       CLOUDY    30  27  86 W8        29.65F WCI  23
BENSON         CLOUDY    28  27  93 W8        29.65F WCI  20
ORTONVILLE     CLOUDY    28  25  86 SW3       29.63F
MADISON          N/A     32  28  86 SW6       29.65F WCI  26
WILLMAR        CLOUDY    30  28  93 W10       29.66S WCI  21
$$
MNZ033>034-036-042>043-049>051-058-059-242300-
   Central Minnesota

CITY           SKY/WX    TMP DP  RH WIND       PRES   REMARKS
ST CLOUD       CLOUDY    35  30  82 W7        29.63S WCI  29
SAUK CENTRE    CLOUDY    30  29  94 W7        29.63S WCI  23
PAYNESVILLE    CLOUDY    29  28  99 SW8       29.64S WCI  21
AITKIN         CLOUDY    36  30  80 CALM      29.58F
PINE RIVER     CLOUDY    32  30  93 S3        29.62F
BRAINERD       CLOUDY    33  30  88 W5        29.60F WCI  29
STAPLES        CLOUDY    30  28  93 W6        29.60F WCI  24
LONG PRAIRIE   CLOUDY    30  28  93 CALM      29.62S
LITTLE FALLS   CLOUDY    32  30  93 W5        29.62F WCI  27
LITCHFIELD     CLOUDY    34  32  93 W7        29.64F WCI  28
BUFFALO        CLOUDY    33  31  92 W5        29.64F WCI  29
MAPLE LAKE     CLOUDY    34  32  93 NW3       29.64F
$$
MNZ037-044-045-052-053-242300-
   East Central Minnesota

CITY           SKY/WX    TMP DP  RH WIND       PRES   REMARKS
PRINCETON      CLOUDY    36  30  80 W6        29.63S
MORA           CLOUDY    34  28  80 CALM      29.64S
CAMBRIDGE      CLOUDY    36  28  75 CALM      29.61S
RUSH CITY      CLOUDY    35  29  80 NW5       29.63S WCI  31
MOOSE LAKE     CLOUDY    32  32 100 CALM      29.58F
HINCKLEY       CLOUDY    34  32  93 CALM      29.61F
CLOQUET        CLOUDY    32  30  93 W6        29.58F WCI  26
MCGREGOR       CLOUDY    34  32  93 W5        29.60S WCI  30
$$
MNZ071>073-080-081-089-090-097-098-242300-
   Southwest Minnesota

CITY           SKY/WX    TMP DP  RH WIND       PRES   REMARKS
MONTEVIDEO     CLOUDY    30  30 100 W5        29.67F WCI  25
GRANITE FALLS  CLOUDY    31  28  90 W7        29.68F WCI  24
CANBY          CLOUDY    28  26  92 W7        29.66F WCI  21
MARSHALL       CLOUDY    28  25  86 W7        29.66F WCI  21
REDWOOD FALLS  CLOUDY    32  29  88 W7        29.66F WCI  26
OLIVIA         CLOUDY    30  30 100 W7        29.66S WCI  23
PIPESTONE      FOG       25  25 100 W7        29.65F VSB 3/4 WCI  17
WINDOM         CLOUDY    30  28  93 CALM      29.67S
WORTHINGTON    CLOUDY    27 -18  13 W9        29.67F WCI  17
JACKSON        CLOUDY    32  28  86 W8        29.67F WCI  25
TRACY          CLOUDY    30  28  93 SW8       29.66F WCI  23
SLAYTON        CLOUDY    27  26  98 SW10      29.66F FOG     WCI  17
$$
MNZ065>067-074>077-082>085-091>093-242300-
   South Central Minnesota

CITY           SKY/WX    TMP DP  RH WIND       PRES   REMARKS
MANKATO        CLOUDY    32  27  80 W8        29.66S WCI  25
NEW ULM        CLOUDY    30  30 100 W8        29.67S WCI  23
FAIRMONT       CLOUDY    32  27  80 NW8       29.68S WCI  25
GLENCOE        CLOUDY    34  32  94 W8        29.64F WCI  27
FARIBAULT      CLOUDY    36  30  80 W7        29.65S
OWATONNA       CLOUDY    34  30  86 NW8       29.64F WCI  27
ALBERT LEA     CLOUDY    34  32  93 W9G16     29.65S WCI  26
$$
MNZ078>079-086>088-094>096-242300-
   Southeast Minnesota

CITY           SKY/WX    TMP DP  RH WIND       PRES   REMARKS
ROCHESTER      CLOUDY    33  30  88 NW13      29.63R WCI  24
RED WING       CLOUDY    36  32  87 W7        29.62S
STANTON        CLOUDY    36  31  84 NW6       29.63S
DODGE CENTER   CLOUDY    34  30  86 NW9       29.63R WCI  26
WINONA         CLOUDY    36  32  87 NW12      29.61S
AUSTIN         CLOUDY    34  30  86 NW10      29.64R WCI  26
PRESTON        CLOUDY    32  30  94 NW14G21   29.62R FOG     WCI  22
$$
ABBREVIATIONS USED IN REMARKS
   TC - TEMPERATURES IN CELSIUS
  WCI - WIND CHILL INDEX
   HX - HEAT INDEX
  VSB - VISIBILITY
$$


USA.gov is the U.S. government's official web portal to all federal, state and local government web resources and services.